Find Kuiper-00146

NORAD ID: 65967 Int'l Des: 2025-228 Owner: KUIP Country: US Constellation: amazon-leo operational
LEOCIRCULAR

現在のビュー

3D地球を読み込み中...

About Kuiper-00146

Kuiper-00146 (NORAD 65967) is a amazon-leo constellation satellite launched Oct 14, 2025 by KUIP of US. It operates in LEO, CIRCULAR orbit with a mass of 490.00 kg.

次回通過

Passes for default location (London). Set your location on the main map for personalized predictions.

高度履歴

Loading altitude history...

軌道要素

1 65967U 25228W 26263.26770368 -.00000611 00000-0 -51124-4 0 9997
2 65967 51.9030 202.8226 0001092 68.3393 291.7685 14.79925132 52287
Epoch: Sep 20, 2026 • Age: 23 hours

現在のステータス

高度 634.8 km
遠地点 / 近地点 N/A
速度 7.54 km/s
衛星直下点 -19.10°S, 107.83°E
打ち上げ日 Oct 14, 2025
運用期間 0.9 years
タイプ internet

技術仕様

分類 Payload
質量 490.00 kg
形状 ? Box + 2 pan
製造者 KUIP
バスタイプ Kuiper
フェーズステータス In Orbit
所有者/国 KUIP/US

Most Searched